Regional Weather Roundup
Issued by NWS Grand Forks, ND

Home | Current Version | Previous Version | Graphics & Text | Print | Product List | Glossary On
Versions: 1 2 3 4 5 6 7 8 9 10 11 12 13 14 15 16 17 18 19 20 21 22 23 24 25 26 27 28 29 30 31 32 33 34 35 36 37 38 39 40 41 42 43 44 45 46 47 48 49 50
000
ASUS43 KFGF 290110
RWRFGF
PRAIRIE TO PINES  WEATHER ROUNDUP
NATIONAL WEATHER SERVICE EASTERN NORTH DAKOTA/GRAND FORKS ND
800 PM CDT TUE JUL 28 2015

 **SATELLITE DATA USED TO AUGMENT SKY COVER AT AUTOMATED STATIONS**
 *****  WEATHER ACROSS EASTERN NORTH DAKOTA  *****

CITY           SKY/WX    TMP DP  RH WIND       PRES   REMARKS
GRAND FORKS    MOCLDY    72  50  45 SW29G44   29.61F
GRAND FRKS AFB CLOUDY    71  52  50 SW26G36   29.61F
GRAND FRKS NWS   N/A     72 N/A N/A SW21        N/A
DEVILS LAKE    CLOUDY    66  50  55 SW40G48   29.54F
FARGO          PTCLDY    75  50  41 SW29G44   29.74R
WAHPETON ARPT  CLEAR     73  46  38 W17       29.81R
$$

 ***** WEATHER ACROSS CENTRAL AND WESTERN NORTH DAKOTA  *****

CITY           SKY/WX    TMP DP  RH WIND       PRES   REMARKS
BISMARCK       MOSUNNY   68  45  43 W29G51    29.83R
MINOT          LGT RAIN  58  52  80 SW35G51   29.49R
JAMESTOWN      CLOUDY    69  47  45 W23G41    29.75R
MINOT AFB      LGT RAIN  59  57  94 W29G39    29.46R FOG
GARRISON         N/A     61  49  64 W38G62    29.68R
WILLISTON      LGT RAIN  56  51  84 W37G49    29.80R
DICKINSON      MOSUNNY   68  42  38 W32G46    29.87R
HETTINGER      SUNNY     68  40  35 W29G40    29.97S
$$

 *****  OTHER AIRPORT OBSERVATIONS IN OUR AREA  *****

CITY           SKY/WX    TMP DP  RH WIND       PRES   REMARKS
WALHALLA       FAIR      70  52  52 MISG      29.47F
GRAFTON AIRPOR CLOUDY    72  54  53 SW25G36   29.56F
VALLEY CITY AR NOT AVBL
CANDO          NOT AVBL
CAVALIER APRT  MOCLDY    70  54  56 SW15G25   29.49F
GWINNER        FAIR      73  52  46 SW22G35   29.82R
SHEYENNE NWR     N/A     74  51  43 W21       29.95S
ROLLA          FOG       55  55 100 SW29G54   29.39F VSB 3/4
 ***** THE ABOVE OBSERVATIONS ARE NON NWS ARE NOT QUALITY
       CONTROLLED AND MAY MIS-REPORT RAIN FOR SNOW...
$$

  *****  WEATHER ACROSS NORTHERN MINNESOTA  *****

CITY           SKY/WX    TMP DP  RH WIND       PRES   REMARKS
FLAG ISLAND    MOCLDY    73  57  56 S20G30    29.58R
WARROAD        CLOUDY    72  59  64 S10G21    29.60F
ROSEAU         CLOUDY    72  57  60 S18       29.59F
HALLOCK        CLOUDY    72  55  56 SW17      29.53F
THF RVR FALLS  CLOUDY    72  55  56 SW15G24   29.64F
BAUDETTE       MOCLDY    73  54  51 SW12G24   29.65S
WASKISH        CLEAR     73  55  53 SW17G30   29.70S
CROOKSTON      MOCLDY    72  55  56 SW23      29.66S
STEPHEN NDAWN    N/A     72  54  53 SW17        N/A
GREENBUSH NDAW   N/A     72  54  53 SW16        N/A
$$
  *****  WEATHER ACROSS CENTRAL AND WEST MINNESOTA  *****

CITY           SKY/WX    TMP DP  RH WIND       PRES   REMARKS
FOSSTON        CLEAR     72  57  60 SW17G23   29.71F
BEMIDJI        MOCLDY    72  55  54 SW13G20   29.74S
PARK RAPIDS    PTCLDY    74  54  49 SW16      29.78S
ELBOW LAKE     MOCLDY    73  56  54 W10       29.84R
WADENA         CLEAR     73  55  53 SW7G16    29.81R
DETROIT LAKES  CLEAR     73  52  46 SW17G23   29.79R
MOORHEAD       PTCLDY    73  52  46 SW21G32   29.76R
FERGUS FALLS   CLEAR     73  52  46 W23G30    29.80R
MORRIS MN      CLEAR     75  59  57 W8        29.85R
STAPLES        CLEAR     73  55  53 SW12      29.82R
$$
  *****  WEATHER ELSEWHERE ACROSS MINNESOTA  *****

CITY           SKY/WX    TMP DP  RH WIND       PRES   REMARKS
DULUTH         MOCLDY    79  68  69 S15       29.78S
INTRNTL FALLS  CLEAR     75  60  59 W13G18    29.67R
ELY            CLOUDY    79  64  61 S8        29.73F
CLOQUET        CLOUDY    75  68  78 SW7       29.78S
WHEATON        CLEAR     73  52  46 W13G24    29.87R
BRAINERD       CLEAR     75  57  53 W15G26    29.81R
HIBBING        MOCLDY    78  66  66 VRB7G24   29.74S
ALEXANDRIA     CLEAR     74  57  55 W13       29.86S
SAINT CLOUD    CLEAR     77  59  53 W14G22    29.85R
MINNEAPOLIS    MOCLDY    82  70  66 W12G20    29.84R
$$

  *****  WEATHER ACROSS SOUTH DAKOTA  *****

CITY           SKY/WX    TMP DP  RH WIND       PRES   REMARKS
SIOUX FALLS    PTCLDY    76  57  51 W5        29.94S
BROOKINGS      CLEAR     73  55  53 W8        29.95R
WATERTOWN      CLEAR     75  53  46 W13G24    29.91R
HURON          CLEAR     76  54  46 W12       29.93R
SISSETON         N/A     74  52  46 W17G25    29.85R
ABERDEEN       CLEAR     75  49  39 W18G30    29.89R
MITCHELL       CLEAR     79  51  37 W12       29.95
PIERRE         SUNNY     77  46  33 NW25G31   29.98R
MOBRIDGE       MOSUNNY   74  49  41 W26G37    29.91R
RAPID CITY     SUNNY     71  45  39 N14       30.09R
$$

  *****  SOME WEATHER IN NEARBY STATES *****

CITY           SKY/WX    TMP DP  RH WIND       PRES   REMARKS
GLASGOW MT     PTSUNNY   68  47  46 NW15      29.94R
GREAT FALLS MT PTSUNNY   74  32  21 W17       30.11R
CHEYENNE WY    MOSUNNY   72  30  21 E7        30.22R
SCOTTSBLUFF NE SUNNY     81  30  15 CALM      30.11R
OMAHA NE       MOCLDY    78  69  73 N14G23    29.90R
DES MOINES IA  TSTM      75  70  84 N23G36    29.94R
DAVENPORT IA   CLOUDY    80  75  84 N6        29.92R
CHICAGO IL     MOCLDY    85  69  58 SW5       29.91R
EAU CLAIRE WI  CLOUDY    82  73  74 S8        29.84R
LA CROSSE WI   CLOUDY    82  72  71 S10       29.87R
$$

  *****  SOME NATIONAL WEATHER *****

CITY           SKY/WX    TMP DP  RH WIND       PRES   REMARKS
LA GUARDIA NY  PTCLDY    85  62  46 S6        29.95R
RALEIGH NC     LGT RAIN  80  74  81 NE3       29.99S
ATLANTA GA     MOCLDY    86  69  56 N10       29.99R HX  90
NEW ORLEANS LA PTCLDY    88  73  61 SW7       29.96R HX  95
OKLAHOMA CITY  PTCLDY    88  69  53 S9        29.91S HX  92
ALBUQUERQUE NM LGT RAIN  84  47  27 VRB7G17   30.11R
SALT LAKE CITY SUNNY     77  27  15 N10       30.19F
LOS ANGELES CA MOSUNNY   73  64  73 W14       29.85S
BOISE ID       SUNNY     80  25  13 NW6       30.17F
SEATTLE WA     MOSUNNY   81  49  32 N10       30.20F
$$

*** WEATHER ACROSS MANITOBA...SASKATCHEWAN AND ONTARIO ***
                ***ONTARIO***

CITY           SKY/WX    TMP DP  RH WIND       PRES   REMARKS
GERALDTON      PTCLDY    73  61  64 S13G20    29.82F
THUNDER BAY    PTCLDY    75  64  69 E7        29.77S
SIOUX LOOKOUT  PTCLDY    77  66  69 S12G22    29.60F
TORONTO        MOCLDY    82  54  36 S6        29.97R
BIG TROUT LK   MOCLDY    77  66  69 VRB6      29.54F
PICKLE LAKE    MOCLDY    70  68  94 S13G22    29.62R
DRYDEN         PTCLDY    77  59  53 SW22G32   29.60R
KENORA         MOCLDY    72  57  60 SW21G29   29.59R
$$
                *** MANITOBA***

CITY           SKY/WX    TMP DP  RH WIND       PRES   REMARKS
BRANDON        LGT RAIN  59  57  94 SW9       29.26F FOG
DAUPHIN        CLOUDY    63  61  94 W8G17     29.27F
ISLAND LAKE    LGT RAIN  73  68  83 N16       29.37F
PILOT MOUND      N/A     63  52  67 SW32G49     N/A
THE PAS        LGT RAIN  61  59  94 N20G36    29.40S
THOMPSON       LGT RAIN  59  57  94 NE22G32   29.47F FOG
WINNIPEG       PTSUNNY   70  57  64 S18       29.42F
LYNN LAKE        N/A    N/A N/A N/A MISG        N/A
CHURCHILL      LGT RAIN  57  54  88 SE15      29.67S
GILLAM         LGT RAIN  66  61  82 NE13G21   29.51F
$$
                ***SASKATCHEWAN***

CITY           SKY/WX    TMP DP  RH WIND       PRES   REMARKS
ESTEVAN        LGT RAIN  57  55  94 NW41G59   29.55R
KINDERSLEY     PTSUNNY   72  46  40 NW21G28   29.88S
LLOYDMINSTER   MOSUNNY   72  46  40 NW15      29.87R
PRINCE ALBERT  NOT AVBL
REGINA         LGT RAIN  55  54  94 NW31G47   29.68R FOG
YORKTON        CLOUDY    61  55  82 NW26G36   29.36R
N. BATTLEFORD  PTSUNNY   66  55  68 W7        29.83R
LA RONGE       NOT AVBL
SASKATOON      CLOUDY    64  55  72 NW13G18   29.77R
SWIFT CURRENT  CLOUDY    64  50  59 NW14      29.89R
$$
NOTE: THESE ARE AUTOMATED STATIONS WITH LIMITED QUALITY CONTROL
      "FAIR" INDICATES FEW OR NO CLOUDS BELOW 12,000 FEET WITH NO
      SIGNIFICANT WEATHER AND/OR OBSTRUCTIONS TO VISIBILITY.
      SKY/WX - SKY CONDITION AND SIGNIFICANT WEATHER.
      TMP - AIR TEMPERATURE.    DP   - DEWPOINT TEMPERATURE.
      RH  - RELATIVE HUMIDITY.  PRES - PRESSURE.
      HX  - HEAT INDEX.         WCI  - WIND CHILL INDEX.
$


USA.gov is the U.S. government's official web portal to all federal, state and local government web resources and services.